User: anonymous   Login
Location: Unspecified
(0.0000°N, 0.0000°E)
Time: 08:57:52
(UTC+00:00)
Language:

USA 72 - Orbit

View from above orbital plane
View from above orbital plane
View from above satellite
View from above satellite

Ground track
Ground track

The orbit data is extracted from the following two-line orbital elements,

1 21775U 91076A   17086.64586840 0.00000000  00000-0  00000-0 0    01
2 21775  63.3408 158.1969 3350989 269.0997  53.0888  5.53395112    02
Epoch (UTC): 27 March 2017 15:30:03
Eccentricity: 0.3350989
inclination: 63.3408°
perigee height: 2599 km
apogee height: 11647 km
right ascension of ascending node: 158.1969°
argument of perigee: 269.0997°
revolutions per day: 5.53395112
mean anomaly at epoch: 53.0888°
orbit number at epoch: 0

The dashed part of the orbit path shows where the satellite is in the earth's shadow,  

DLR